NOAA 16 DEB, 41706

Orbit data source: Space-Track

NOAA 16 DEB, 41706 is space debris in SSO originally from a launch on Thu, 21 Sep 2000 UTC launched from the Air Force Western Test Range (AFWTR). Debris objects in space refer to the collection of defunct objects orbiting the Earth. Examples of debris include non-operational satellites, rocket bodies, and fragments generated from explosions, collisions, or faulty payload assembly.

Loading next visibility...
Identifier
41706, 2000-055PL
Orbit
SSO
Country
Flag of USUS
Related business
Manufacturer
Unknown
Mission
Spacecraft
Bus & Motor
Unknown
Mass
Unknown
Launch date (UTC)
2000-09-21 (26 years ago)
Launch vehicle
Unknown
Launch site
Air Force Western Test Range (AFWTR)
Object type
Payload
Rocket body
Debris
Shape & HBR
Unknown shape, 0.1 m
Radar Cross Section
Small (<0.1 m²)

Expand to show TLE details & history
Last TLE update: 3 days ago

TLE from 3 days ago
0 NOAA 16 DEB
1 41706U 00055PL  26097.52261138  .00002286  00000-0  11660-2 0  9994
2 41706  98.6743 128.1087 0034286  46.5803 313.8217 14.16361731519152
Epoch: 2026-04-07T12:32Z
TLE epoch observation values (Epoch: 2026-04-07T12:32:33.623Z)
Latitude
0.00006°
Longitude
104.17048°
Altitude
823.505 km
Speed
7.45 km/s
True Right ascension
08h 32m 26s
True Declination
0° 00' 00"
Sunlit
Object was in daylight at epoch
Visualization orbit readout
Latitude
Unknown
Longitude
Unknown
Altitude
Unknown
Speed
Unknown
Apparent Right ascension
Unknown
Apparent Declination
Unknown
Sunlit
N/A
Visualization observer readout
Local Sidereal Time
02:01:35
Azimuth
Unknown
Elevation
Unknown
Doppler factor
Unknown
Orbital elements
Apogee altitude
859.576 km
Perigee altitude
810.115 km
Semi-major axis
7,212.982 km
Eccentricity
0.00343
Inclination
98.6743°
RAAN
128.1087°
Arg. of periapsis
46.5803°
True anomaly
313.53739°
Mean anomaly
313.8217°
Eccentric anomaly
313.67963°
Mean motion
3.543 °/min
Orbital period
101.61 mins
BSTAR
0.001166
Loading maneuver chart data...
Computing Atmospheric mass density...
Loading historical data...
Loading historical data...
Loading historical data...
Loading historical data...
Loading historical data...
Loading historical data...
Loading historical data...

Documentation

Showing up to 5 results
|